Wind_Speed
34 35 36 38 38 37 36 38 43 45 50 51 48 43 43 43 45 44 46 43 47 48 52 55 58 55 56 55 51 47 45 40 38 34 31 32 33 34 34 34 31 31 27
36 37 39 41 41 40 41 42 46 50 52 53 48 47 49 49 50 51 49 50 49 50 51 54 57 56 54 57 58 53 50 48 44 41 36 37 37 38 38 37 35 33 30
37 40 43 42 41 41 43 44 48 52 54 52 45 43 42 44 45 47 47 41 37 40 42 47 52 56 59 57 58 62 54 54 50 47 44 43 41 40 40 39 39 36 33
39 41 42 40 41 43 44 46 49 53 54 49 45 46 48 47 45 48 42 36 35 38 40 42 45 51 57 60 60 61 61 55 56 51 50 46 43 40 39 41 41 40 37
38 41 41 41 43 42 44 46 47 51 48 44 43 45 47 45 46 48 43 39 37 36 38 37 43 50 52 53 57 63 65 61 59 58 52 50 46 44 39 40 39 39 38
38 39 40 39 39 40 42 43 44 44 43 41 40 42 45 43 43 50 43 40 39 42 43 41 45 49 55 54 52 59 69 68 59 63 59 55 50 43 41 36 33 32 31
33 35 35 32 34 37 39 40 41 40 40 38 38 40 42 42 45 51 46 32 34 43 42 44 49 49 52 56 50 53 65 64 72 63 69 59 54 48 41 37 32 28 27
29 27 29 30 32 36 38 40 41 40 39 38 38 39 41 42 44 50 41 36 42 41 42 42 42 43 47 51 49 50 61 67 69 69 70 62 59 54 43 41 36 30 29
22 25 26 29 33 36 39 41 43 41 40 38 38 39 41 39 43 46 41 38 38 44 47 38 35 36 40 41 41 46 55 63 69 63 77 42 65 56 49 46 42 36 33
22 24 26 30 35 37 39 41 42 41 40 37 38 39 41 39 43 44 45 45 36 34 43 30 29 29 30 29 32 39 47 57 65 71 61 67 42 62 53 48 45 42 37
22 24 27 31 35 39 40 40 40 38 36 34 35 38 39 38 39 42 47 43 33 32 29 30 26 25 19 21 28 34 40 46 45 53 60 73 51 57 56 51 49 45 41
21 25 29 32 37 39 39 38 37 36 36 35 35 37 38 38 37 39 41 43 34 33 33 32 29 23 25 26 31 27 32 40 39 38 45 51 62 60 61 56 51 48 43
24 29 32 34 37 38 37 37 36 35 35 34 34 35 37 37 37 37 37 39 38 34 37 22 26 23 26 30 30 33 37 43 42 37 44 54 53 63 65 60 56 52 47
29 31 33 35 35 36 36 36 36 36 35 35 34 35 37 37 37 36 35 37 37 33 35 34 17 26 24 26 31 35 40 42 43 45 43 43 47 73 68 61 59 53 51
28 31 34 33 33 34 36 36 36 36 36 36 35 34 36 36 37 36 34 35 35 33 32 36 26 23 23 23 32 37 35 45 44 43 44 50 45 72 75 69 63 58 55
26 30 31 32 33 34 35 36 36 36 36 37 36 34 35 36 36 36 34 34 33 33 30 33 28 23 22 32 22 43 39 35 45 48 47 46 41 66 73 70 64 61 58
28 29 29 31 33 34 35 35 35 35 36 37 37 35 35 36 35 36 34 32 32 32 30 31 31 26 23 29 19 28 33 34 36 49 48 39 46 70 68 74 69 65 60
25 25 27 30 32 32 33 33 34 35 36 36 37 36 35 35 34 34 34 31 31 30 29 29 28 25 25 22 19 22 30 40 38 45 44 52 53 62 78 77 65 72 67
21 24 27 29 30 30 30 32 33 34 35 34 35 35 34 34 33 34 32 31 29 26 26 27 26 23 23 31 19 18 20 30 30 33 35 40 52 53 66 67 77 68 68
22 25 27 27 26 28 31 33 32 32 33 32 32 33 33 33 32 33 32 30 29 26 24 23 24 23 20 23 24 18 13 15 24 33 34 23 42 59 42 69 73 69 61
23 24 24 24 27 29 30 32 30 31 31 31 30 30 31 31 31 31 31 29 28 26 23 21 21 20 22 19 20 9 9 12 16 18 30 29 40 52 44 51 73 72 52
19 20 23 26 28 28 29 29 29 30 30 29 28 29 29 29 28 29 28 28 27 26 23 20 20 20 19 20 12 9 13 13 4 6 17 28 26 37 32 37 39 45 51
18 21 23 25 25 26 26 27 27 27 28 28 27 27 26 27 26 26 25 24 24 23 23 20 17 18 16 17 15 8 7 14 16 15 13 14 15 19 29 31 33 46 35
19 20 20 21 23 24 24 25 25 26 27 26 26 25 23 23 24 22 22 23 22 21 20 19 15 17 17 17 15 11 8 7 9 12 15 9 13 9 10 29 25 28 37
16 18 19 20 21 23 23 23 24 24 25 25 24 23 22 21 22 23 19 21 23 23 22 22 20 18 13 15 13 9 7 11 3 10 18 20 18 18 22 23 24 26 28
15 17 18 20 21 22 22 22 22 22 22 23 22 21 21 21 20 20 21 20 20 21 22 23 23 22 19 15 14 12 10 6 9 7 4 12 14 20 24 25 25 27 26
Wind_Direction
276 279 286 292 295 297 300 302 310 316 317 319 317 313 313 311 311 309 300 291 288 284 277 265 259 256 252 245 239 238 242 237 241 242 241 235 231 232 228 229 228 226 229
272 277 279 282 288 292 300 303 308 313 317 320 319 316 316 316 314 313 308 298 288 283 277 271 257 253 252 250 243 234 235 237 233 237 237 234 232 229 230 228 231 227 230
261 265 267 273 279 285 292 302 309 315 319 320 317 315 314 313 317 315 307 300 293 289 283 265 262 256 254 252 249 241 231 234 234 232 234 231 235 231 231 230 231 230 231
254 257 261 269 278 287 297 303 308 316 320 320 317 317 317 314 316 321 306 299 292 289 286 278 271 258 256 256 246 243 235 232 231 232 232 235 239 243 235 233 231 232 232
253 258 265 273 279 286 293 302 313 317 320 321 315 315 315 311 314 314 297 291 289 290 288 284 275 266 260 255 248 238 239 233 228 229 231 232 234 240 234 236 235 234 233
248 255 263 270 280 290 299 310 319 319 321 319 315 309 312 316 315 315 300 292 290 296 291 285 282 274 261 254 248 238 236 231 232 224 230 231 232 233 236 229 228 231 230
247 256 266 278 289 297 307 319 319 320 319 318 315 314 318 320 316 316 311 293 289 299 295 289 280 273 264 256 245 239 233 234 229 225 226 227 227 232 235 229 224 224 225
253 263 274 292 304 310 320 319 319 320 320 321 319 320 323 320 317 321 312 301 301 309 300 286 277 273 263 254 248 238 230 228 227 231 224 223 224 228 225 228 223 221 222
260 275 294 306 312 322 321 322 319 322 323 325 322 325 321 321 321 326 316 304 309 292 299 290 276 277 261 250 250 237 232 226 230 241 234 220 215 224 222 229 227 223 224
271 290 303 312 319 320 323 322 319 321 324 327 327 326 322 325 325 326 321 317 299 311 323 296 275 286 276 241 236 230 231 230 232 237 247 217 221 220 218 225 228 226 227
279 296 309 316 318 321 321 319 319 320 322 326 326 324 324 326 325 324 323 322 307 305 326 302 280 272 263 244 223 222 228 232 239 243 245 228 226 224 218 221 227 227 228
291 301 307 313 320 320 318 318 318 320 322 325 327 327 327 326 324 323 324 325 314 304 303 313 286 262 253 234 229 222 231 230 237 237 246 240 226 223 226 221 222 226 226
291 299 308 318 319 316 316 316 317 319 322 323 326 327 328 325 323 323 322 322 321 308 320 322 298 282 257 245 237 235 230 228 232 234 234 227 236 227 218 222 219 224 226
286 299 312 315 316 312 312 314 315 318 321 322 324 325 327 327 324 324 321 323 322 316 300 309 302 322 265 242 242 237 235 230 232 228 228 232 231 214 219 224 220 222 226
296 306 311 313 311 309 309 311 314 317 320 320 322 322 324 327 326 324 319 318 320 317 311 306 291 296 305 249 243 244 247 240 228 224 230 235 242 221 221 222 223 220 224
298 305 307 308 306 307 310 313 316 319 320 321 321 320 321 325 326 324 319 315 317 315 316 298 305 302 302 292 262 244 242 243 232 223 225 223 235 215 216 218 221 222 223
299 299 302 305 308 310 312 316 321 326 326 324 321 321 320 323 324 322 321 317 314 314 316 300 302 301 290 294 304 260 235 236 234 228 229 231 233 218 224 220 216 221 223
291 295 301 306 308 312 317 322 326 329 329 327 325 325 322 320 323 323 322 320 316 312 311 316 306 308 297 314 280 289 238 233 235 232 234 234 228 220 217 206 219 220 222
292 299 304 308 315 319 324 325 324 327 329 328 327 325 322 321 323 325 323 321 319 314 310 313 315 311 301 283 309 302 253 224 228 217 223 220 219 212 212 208 211 223 223
298 304 309 314 319 322 321 323 324 326 328 328 326 325 325 325 326 326 325 325 324 321 315 306 312 314 313 284 307 310 246 196 207 211 216 221 207 200 215 216 225 224 220
300 306 311 316 319 321 322 326 325 327 329 329 328 326 327 328 328 329 328 330 331 329 318 311 306 308 314 310 316 302 283 201 220 221 217 196 204 207 223 233 226 212 217
302 309 314 317 319 321 323 326 326 327 329 330 329 327 326 329 329 331 331 332 335 335 327 313 305 308 314 321 322 271 249 245 285 205 210 217 222 223 221 212 202 212 214
309 312 316 319 321 325 328 328 328 330 332 332 329 326 327 330 329 331 334 335 338 340 336 334 322 320 319 317 340 335 225 232 238 239 180 184 187 203 211 225 223 232 228
312 318 324 329 331 331 332 334 336 336 336 336 333 328 329 332 328 331 337 339 345 348 347 349 343 334 336 324 317 343 7 242 222 210 233 209 205 214 215 218 227 209 207
320 326 330 333 335 337 337 338 340 341 339 340 340 337 336 337 333 332 338 344 347 354 359 2 0 353 338 334 342 329 333 18 224 166 170 184 205 189 185 201 189 196 207
327 328 329 331 331 331 334 336 338 339 342 344 345 346 350 345 342 340 343 345 349 353 360 1 1 6 5 348 338 331 341 333 0 52 198 172 187 201 203 201 203 207 208
Height
3109 3109 3109 3108 3107 3105 3104 3101 3098 3094 3090 3085 3080 3078 3074 3071 3069 3064 3060 3058 3055 3053 3050 3050 3050 3053 3056 3060 3064 3069 3075 3078 3080 3081 3082 3084 3085 3088 3090 3094 3096 3099 3102
3104 3105 3104 3103 3103 3101 3099 3096 3092 3088 3082 3076 3071 3066 3061 3059 3055 3049 3046 3043 3040 3038 3035 3033 3036 3038 3041 3046 3051 3055 3061 3067 3070 3073 3075 3076 3079 3080 3083 3087 3090 3093 3096
3100 3098 3096 3097 3096 3095 3093 3090 3086 3080 3075 3069 3065 3061 3058 3054 3047 3041 3034 3028 3025 3021 3019 3018 3018 3023 3026 3030 3036 3042 3048 3052 3060 3062 3065 3066 3068 3070 3075 3077 3082 3085 3088
3093 3092 3090 3091 3090 3089 3086 3083 3080 3073 3067 3061 3055 3051 3044 3040 3036 3030 3024 3020 3017 3013 3008 3007 3005 3006 3011 3012 3021 3027 3034 3040 3044 3053 3055 3059 3063 3064 3066 3070 3073 3077 3080
3088 3086 3086 3086 3084 3083 3082 3078 3072 3065 3058 3053 3049 3042 3038 3033 3028 3021 3013 3009 3007 3003 3000 2996 2994 2992 2992 2996 3002 3011 3016 3024 3029 3036 3045 3049 3053 3057 3059 3062 3066 3069 3073
3082 3081 3082 3081 3080 3077 3074 3070 3062 3057 3051 3048 3044 3038 3030 3023 3016 3009 3001 2996 2993 2989 2987 2984 2980 2979 2978 2978 2984 2992 3000 3009 3013 3022 3029 3036 3043 3048 3053 3055 3060 3063 3066
3078 3077 3076 3075 3073 3071 3066 3060 3056 3050 3046 3043 3038 3031 3021 3013 3007 2999 2987 2985 2982 2979 2973 2970 2967 2962 2961 2961 2966 2973 2981 2992 3002 3003 3014 3025 3032 3038 3045 3051 3054 3057 3060
3073 3073 3070 3069 3067 3063 3056 3054 3049 3045 3040 3035 3030 3022 3012 3006 2999 2991 2980 2975 2970 2967 2962 2956 2951 2948 2946 2946 2949 2955 2964 2976 2984 2988 2985 3007 3021 3027 3033 3042 3047 3051 3053
3068 3067 3065 3062 3059 3054 3051 3046 3042 3037 3032 3027 3020 3013 3007 3001 2991 2983 2975 2968 2964 2959 2951 2943 2939 2936 2931 2932 2937 2941 2949 2959 2968 2968 2956 2980 3004 3013 3022 3030 3037 3043 3046
3062 3061 3059 3056 3052 3050 3045 3040 3035 3030 3025 3020 3012 3006 3001 2993 2984 2976 2967 2960 2956 2949 2940 2933 2931 2926 2921 2920 2924 2929 2939 2947 2955 2960 2966 2977 2979 2999 3008 3018 3028 3033 3037
3056 3055 3052 3051 3049 3044 3039 3034 3029 3025 3021 3015 3008 3001 2994 2986 2979 2969 2961 2951 2945 2940 2932 2926 2922 2920 2917 2916 2918 2924 2931 2939 2945 2952 2960 2968 2973 2985 2996 3009 3018 3023 3030
3051 3049 3048 3046 3043 3038 3033 3028 3024 3019 3014 3009 3003 2995 2987 2980 2974 2965 2956 2947 2940 2933 2925 2916 2914 2912 2914 2914 2916 2917 2924 2931 2937 2944 2948 2954 2965 2976 2988 2997 3007 3013 3020
3048 3045 3044 3040 3037 3032 3028 3024 3018 3014 3008 3003 2996 2989 2981 2975 2968 2959 2951 2943 2934 2928 2922 2915 2909 2908 2905 2907 2910 2911 2913 2919 2925 2932 2937 2944 2949 2964 2974 2984 2994 3003 3009
3045 3040 3037 3035 3032 3027 3022 3018 3013 3008 3002 2996 2990 2983 2977 2969 2962 2954 2946 2938 2929 2922 2916 2911 2905 2899 2892 2896 2899 2902 2903 2907 2913 2920 2927 2935 2941 2952 2964 2974 2984 2994 2998
3037 3033 3031 3029 3026 3021 3017 3012 3007 3001 2995 2989 2983 2978 2972 2964 2957 2949 2941 2933 2925 2917 2909 2903 2898 2894 2888 2889 2891 2893 2896 2899 2901 2907 2915 2923 2930 2938 2951 2965 2975 2982 2986
3031 3027 3025 3023 3020 3016 3011 3006 3000 2995 2989 2983 2977 2972 2966 2960 2951 2944 2936 2929 2921 2912 2906 2900 2892 2888 2885 2880 2877 2880 2885 2887 2892 2896 2903 2911 2918 2930 2939 2950 2962 2971 2977
3026 3022 3019 3016 3013 3009 3004 2999 2993 2987 2982 2976 2971 2966 2960 2953 2946 2938 2931 2923 2916 2909 2902 2895 2889 2882 2877 2872 2872 2870 2873 2879 2884 2889 2894 2898 2906 2919 2928 2937 2948 2958 2966
3019 3017 3014 3011 3008 3003 2998 2992 2987 2981 2977 2972 2965 2959 2954 2947 2941 2934 2926 2918 2911 2904 2897 2891 2885 2878 2874 2869 2862 2859 2859 2866 2869 2877 2882 2884 2892 2902 2915 2925 2934 2943 2950
3013 3010 3008 3005 3001 2996 2992 2988 2982 2977 2972 2967 2960 2955 2949 2942 2935 2929 2922 2914 2906 2900 2894 2888 2882 2876 2871 2866 2859 2856 2851 2852 2857 2862 2867 2870 2877 2888 2904 2913 2918 2929 2940
3007 3004 3002 2999 2995 2991 2988 2983 2977 2973 2967 2962 2957 2950 2944 2937 2930 2924 2917 2909 2902 2895 2890 2886 2880 2875 2870 2863 2858 2854 2850 2848 2852 2856 2860 2863 2868 2881 2896 2899 2909 2920 2929
3003 3000 2998 2995 2991 2987 2983 2978 2973 2968 2963 2958 2952 2946 2939 2933 2927 2921 2914 2906 2900 2893 2887 2882 2878 2874 2869 2863 2856 2853 2852 2849 2852 2851 2856 2861 2868 2880 2887 2886 2890 2898 2911
3000 2997 2993 2989 2986 2983 2978 2973 2968 2964 2959 2954 2948 2942 2936 2930 2924 2918 2913 2905 2898 2892 2885 2880 2876 2872 2868 2864 2858 2854 2854 2850 2848 2852 2852 2858 2866 2872 2873 2876 2885 2896 2906
2996 2993 2989 2985 2982 2978 2973 2969 2965 2960 2955 2950 2944 2939 2933 2927 2922 2916 2911 2904 2897 2891 2885 2877 2872 2869 2866 2862 2857 2852 2851 2851 2851 2851 2853 2857 2861 2865 2873 2875 2882 2892 2897
2992 2989 2984 2981 2978 2973 2969 2966 2962 2957 2951 2946 2941 2936 2930 2924 2920 2915 2909 2903 2897 2891 2885 2879 2872 2869 2865 2862 2858 2854 2851 2850 2851 2850 2854 2855 2861 2863 2866 2872 2878 2883 2890
2988 2984 2981 2978 2974 2970 2967 2963 2959 2954 2950 2944 2939 2933 2928 2922 2918 2913 2908 2903 2897 2891 2885 2880 2874 2870 2865 2862 2858 2855 2853 2851 2850 2850 2853 2856 2860 2864 2867 2873 2875 2880 2885
2984 2981 2978 2975 2972 2968 2965 2961 2957 2953 2948 2943 2938 2932 2926 2922 2918 2913 2907 2902 2898 2893 2888 2883 2878 2873 2868 2864 2861 2858 2856 2856 2855 2852 2852 2854 2856 2861 2865 2870 2874 2878 2882